Arlington Reef Observation History
Time Wind Speed Temp Pressure Rel. Hum Rain
03/12:30pm S 9-11 kts n/a 1010.5 hPa n/a n/a
03/12:00pm S 9-11 kts n/a 1010.8 hPa n/a n/a
03/11:30am S 9-11 kts n/a 1011.3 hPa n/a n/a
03/11:00am S 10-11 kts n/a 1011.7 hPa n/a n/a
03/10:30am SSE 9-12 kts n/a 1011.9 hPa n/a n/a
03/10:00am S 9-11 kts n/a 1012.0 hPa n/a n/a
03/09:30am S 9-11 kts n/a 1012.2 hPa n/a n/a
03/09:00am S 10-12 kts n/a 1012.0 hPa n/a n/a
03/08:30am S 10-11 kts n/a 1011.8 hPa n/a n/a
03/08:00am S 10-13 kts n/a 1011.6 hPa n/a n/a
03/07:30am S 10-13 kts n/a 1011.3 hPa n/a n/a
03/07:00am S 11-13 kts n/a 1010.9 hPa n/a n/a
03/06:30am SSE 12-15 kts n/a 1010.5 hPa n/a n/a
03/06:00am S 11-13 kts n/a 1010.2 hPa n/a n/a
03/05:30am SSE 10-12 kts n/a 1010.0 hPa n/a n/a
03/05:00am SSE 12-14 kts n/a 1009.6 hPa n/a n/a
03/04:30am SSE 10-14 kts n/a 1009.5 hPa n/a n/a
03/04:00am SSE 12-14 kts n/a 1009.4 hPa n/a n/a
03/03:30am SSE 11-13 kts n/a 1009.5 hPa n/a n/a
03/03:00am SSE 12-15 kts n/a 1009.6 hPa n/a n/a
03/02:30am SSE 13-15 kts n/a 1009.8 hPa n/a n/a
03/02:00am SE 13-16 kts n/a 1009.7 hPa n/a n/a
03/01:30am SE 14-17 kts n/a 1010.0 hPa n/a n/a
03/01:00am SE 15-18 kts n/a 1010.3 hPa n/a n/a
03/12:30am SE 15-17 kts n/a 1010.8 hPa n/a n/a
03/12:00am SE 16-18 kts n/a 1010.9 hPa n/a n/a
Time Wind Speed Temp Pressure Rel. Hum Rain
02/11:30pm SE 14-18 kts n/a 1011.3 hPa n/a n/a
02/11:00pm SE 14-20 kts n/a 1011.5 hPa n/a n/a
02/10:30pm SE 16-20 kts n/a 1011.8 hPa n/a n/a
02/10:00pm SE 15-19 kts n/a 1011.9 hPa n/a n/a
02/09:30pm SE 13-16 kts n/a 1012.0 hPa n/a n/a
02/09:00pm ESE 10-15 kts n/a 1011.8 hPa n/a n/a
02/08:30pm SE 11-14 kts n/a 1011.5 hPa n/a n/a
02/08:00pm SE 16-20 kts n/a 1011.1 hPa n/a n/a
02/07:30pm SSE 14-17 kts n/a 1010.8 hPa n/a n/a
02/07:00pm SSE 15-17 kts n/a 1010.5 hPa n/a n/a
02/06:30pm SSE 14-17 kts n/a 1010.5 hPa n/a n/a
02/06:00pm SE 13-15 kts n/a 1010.5 hPa n/a n/a
02/05:30pm SSE 13-15 kts n/a 1010.2 hPa n/a n/a
02/05:00pm SSE 13-16 kts n/a 1009.9 hPa n/a n/a
02/04:30pm SE 9-11 kts n/a 1009.9 hPa n/a n/a
02/04:00pm ESE 11-13 kts n/a 1009.9 hPa n/a n/a
02/03:30pm ESE 11-15 kts n/a 1010.1 hPa n/a n/a
02/03:00pm S 10-16 kts n/a 1010.1 hPa n/a n/a
02/02:30pm SE 11-15 kts n/a 1010.3 hPa n/a n/a
02/02:00pm S 9-15 kts n/a 1010.9 hPa n/a n/a
02/01:30pm S 12-19 kts n/a 1011.2 hPa n/a n/a
02/01:00pm SSE 12-16 kts n/a 1011.5 hPa n/a n/a
02/12:30pm SSE 13-15 kts n/a 1011.7 hPa n/a n/a
02/12:00pm SSE 12-17 kts n/a 1012.3 hPa n/a n/a
02/11:30am SSE 14-17 kts n/a 1012.5 hPa n/a n/a
02/11:00am SSE 15-17 kts n/a 1012.7 hPa n/a n/a
02/10:30am SSE 14-16 kts n/a 1012.7 hPa n/a n/a
02/10:00am SSE 16-18 kts n/a 1012.8 hPa n/a n/a
02/09:30am SE 15-17 kts n/a 1012.7 hPa n/a n/a
02/09:00am SE 16-19 kts n/a 1012.4 hPa n/a n/a
02/08:30am SE 14-16 kts n/a 1012.3 hPa n/a n/a
02/08:00am SE 16-18 kts n/a 1011.9 hPa n/a n/a
02/07:30am SE 15-18 kts n/a 1011.8 hPa n/a n/a
02/07:00am SE 15-18 kts n/a 1011.3 hPa n/a n/a
02/06:30am SE 16-19 kts n/a 1011.0 hPa n/a n/a
02/06:00am SE 16-19 kts n/a 1010.8 hPa n/a n/a
02/05:30am SE 17-20 kts n/a 1010.6 hPa n/a n/a
02/05:00am SE 16-20 kts n/a 1010.3 hPa n/a n/a
02/04:30am ESE 15-17 kts n/a 1010.1 hPa n/a n/a
02/04:00am SE 17-19 kts n/a 1010.2 hPa n/a n/a
02/03:30am SE 17-19 kts n/a 1010.3 hPa n/a n/a
02/03:00am SE 15-21 kts n/a 1010.5 hPa n/a n/a
02/02:30am SE 17-20 kts n/a 1010.4 hPa n/a n/a
02/02:00am SE 15-18 kts n/a 1010.7 hPa n/a n/a
02/01:30am SE 16-18 kts n/a 1011.1 hPa n/a n/a
02/01:00am SE 16-19 kts n/a 1011.4 hPa n/a n/a
02/12:30am SE 19-23 kts n/a 1011.5 hPa n/a n/a
02/12:00am SE 19-22 kts n/a 1011.7 hPa n/a n/a
Time Wind Speed Temp Pressure Rel. Hum Rain
01/11:30pm SE 17-21 kts n/a 1012.2 hPa n/a n/a
01/11:00pm SE 16-19 kts n/a 1012.6 hPa n/a n/a
01/10:30pm SE 16-19 kts n/a 1012.8 hPa n/a n/a
01/10:00pm SE 17-20 kts n/a 1012.8 hPa n/a n/a
01/09:30pm SE 17-19 kts n/a 1012.7 hPa n/a n/a
01/09:00pm SE 16-19 kts n/a 1012.6 hPa n/a n/a
01/08:30pm SE 14-16 kts n/a 1012.6 hPa n/a n/a
01/08:00pm SE 18-20 kts n/a 1012.3 hPa n/a n/a
01/07:30pm SE 14-17 kts n/a 1012.1 hPa n/a n/a
01/07:00pm SE 14-17 kts n/a 1011.9 hPa n/a n/a
01/06:30pm SE 13-15 kts n/a 1011.6 hPa n/a n/a
01/06:00pm SE 13-16 kts n/a 1011.3 hPa n/a n/a
01/05:30pm SE 13-16 kts n/a 1010.9 hPa n/a n/a
01/05:00pm SSE 13-17 kts n/a 1010.9 hPa n/a n/a
01/04:30pm SE 12-14 kts n/a 1010.6 hPa n/a n/a
01/04:00pm SE 12-13 kts n/a 1010.5 hPa n/a n/a
01/03:30pm SE 12-15 kts n/a 1010.5 hPa n/a n/a
01/03:00pm SE 12-13 kts n/a 1010.5 hPa n/a n/a
01/02:30pm SE 11-14 kts n/a 1010.9 hPa n/a n/a
01/02:00pm SE 12-14 kts n/a 1011.1 hPa n/a n/a
01/01:30pm SE 11-14 kts n/a 1011.3 hPa n/a n/a
01/01:00pm ESE 12-14 kts n/a 1011.6 hPa n/a n/a
01/12:30pm SE 12-14 kts n/a 1012.0 hPa n/a n/a
01/12:00pm ESE 12-14 kts n/a 1012.3 hPa n/a n/a
01/11:30am ESE 13-15 kts n/a 1012.5 hPa n/a n/a
01/11:00am SE 12-14 kts n/a 1012.9 hPa n/a n/a
01/10:30am SE 15-18 kts n/a 1013.1 hPa n/a n/a
01/10:00am SE 15-17 kts n/a 1013.1 hPa n/a n/a
01/09:30am SE 15-17 kts n/a 1012.9 hPa n/a n/a
01/09:00am SE 15-17 kts n/a 1012.7 hPa n/a n/a
01/08:30am SE 16-18 kts n/a 1012.4 hPa n/a n/a
01/08:00am SE 16-18 kts n/a 1012.2 hPa n/a n/a
01/07:30am SE 15-18 kts n/a 1011.9 hPa n/a n/a
01/07:00am SE 15-18 kts n/a 1011.6 hPa n/a n/a
01/06:30am SE 14-17 kts n/a 1011.1 hPa n/a n/a
01/06:00am SE 16-19 kts n/a 1010.9 hPa n/a n/a
01/05:30am SE 14-17 kts n/a 1010.6 hPa n/a n/a
01/05:00am SE 16-19 kts n/a 1010.5 hPa n/a n/a
01/04:30am SSE 14-17 kts n/a 1010.3 hPa n/a n/a
01/04:00am SE 17-20 kts n/a 1010.2 hPa n/a n/a
01/03:30am SE 16-21 kts n/a 1010.3 hPa n/a n/a
01/03:00am SE 16-19 kts n/a 1010.6 hPa n/a n/a
01/02:30am SE 16-19 kts n/a 1010.9 hPa n/a n/a
01/02:00am SE 16-19 kts n/a 1011.1 hPa n/a n/a
01/01:30am SE 15-28 kts n/a 1011.3 hPa n/a n/a
01/01:17am SE 17-27 kts n/a 1011.4 hPa n/a n/a
01/01:00am SE 18-21 kts n/a 1011.5 hPa n/a n/a
01/12:30am SE 17-20 kts n/a 1011.9 hPa n/a n/a
01/12:00am SE 16-19 kts n/a 1012.2 hPa n/a n/a